Location: *
(43.4667°N, 11.6833°E)
Time: 00:26:47
(UTC+00:00)

Cosmos 1862 Rocket - Pass Details

Date: 19 July 2019
Orbit: 604 x 634 km, 82.5° (Epoch: 21 August)

Event Time Altitude Azimuth Distance (km) Brightness Sun altitude
Rises 21:21:49 0° 0° (N) 2,871 8.0 -20.3°
Reaches altitude 10° 21:24:14 10° 10° (N) 1,964 6.8 -20.5°
Maximum altitude 21:28:09 33° 75° (ENE) 1,036 4.5 -20.9°
Enters shadow 21:28:34 32° 87° (E) 1,051 4.5 -20.9°
